Total_Precipitation_Accumulation
0.00 0.00 0.00 0.00 0.00 0.00 0.00 0.00 0.00 0.00 0.00 0.00 0.00 0.00 0.00 0.02 0.13 0.22 0.47 0.76 0.78 0.44 0.51 0.45 0.29 0.52 0.71 0.44 0.38 0.24 0.26 0.23 0.08 0.03 0.01 0.01 0.00 0.01 0.01 0.02 0.00 0.00 0.00
0.00 0.00 0.00 0.00 0.00 0.00 0.00 0.00 0.00 0.00 0.00 0.00 0.00 0.00 0.00 0.00 0.06 0.21 0.33 0.81 0.89 0.66 0.39 0.55 0.49 0.43 0.54 0.57 0.44 0.32 0.28 0.25 0.10 0.02 0.01 0.01 0.02 0.01 0.01 0.02 0.00 0.00 0.00
0.00 0.00 0.00 0.00 0.00 0.00 0.00 0.00 0.00 0.00 0.00 0.00 0.00 0.00 0.00 0.00 0.00 0.11 0.41 0.91 1.24 0.77 0.52 0.33 0.54 0.60 0.53 0.44 0.42 0.34 0.23 0.21 0.10 0.01 0.00 0.00 0.01 0.01 0.00 0.02 0.01 0.00 0.00
0.00 0.00 0.00 0.00 0.00 0.00 0.00 0.00 0.00 0.00 0.00 0.00 0.01 0.01 0.01 0.01 0.00 0.01 0.23 0.82 1.31 1.42 0.66 0.43 0.29 0.63 0.60 0.45 0.25 0.22 0.16 0.11 0.07 0.01 0.00 0.00 0.00 0.00 0.00 0.01 0.01 0.00 0.00
0.00 0.00 0.00 0.00 0.00 0.00 0.00 0.00 0.00 0.01 0.00 0.01 0.02 0.02 0.01 0.00 0.00 0.02 0.08 0.50 1.10 1.33 1.32 0.68 0.41 0.41 0.66 0.45 0.37 0.18 0.14 0.08 0.03 0.01 0.00 0.00 0.00 0.00 0.00 0.00 0.01 0.00 0.00
0.00 0.00 0.00 0.00 0.00 0.00 0.00 0.01 0.02 0.01 0.01 0.02 0.02 0.03 0.02 0.01 0.00 0.01 0.06 0.25 0.78 1.11 1.34 1.24 0.73 0.45 0.53 0.52 0.38 0.32 0.16 0.07 0.02 0.00 0.00 0.00 0.00 0.00 0.00 0.00 0.00 0.00 0.00
0.00 0.00 0.00 0.00 0.00 0.00 0.00 0.02 0.03 0.03 0.02 0.03 0.02 0.02 0.02 0.02 0.01 0.01 0.06 0.18 0.48 0.94 1.16 1.26 1.22 0.92 0.51 0.50 0.39 0.39 0.31 0.14 0.03 0.01 0.00 0.00 0.00 0.00 0.00 0.00 0.00 0.00 0.00
0.00 0.00 0.00 0.00 0.00 0.00 0.00 0.02 0.04 0.05 0.05 0.04 0.03 0.03 0.03 0.03 0.01 0.01 0.02 0.11 0.25 0.61 0.98 0.95 1.10 1.27 0.98 0.53 0.45 0.39 0.36 0.21 0.06 0.02 0.00 0.00 0.00 0.00 0.00 0.00 0.00 0.00 0.00
0.00 0.00 0.00 0.00 0.00 0.00 0.00 0.03 0.05 0.07 0.08 0.07 0.06 0.04 0.04 0.04 0.02 0.01 0.01 0.04 0.14 0.38 0.72 0.83 0.74 1.20 1.42 0.89 0.53 0.43 0.32 0.26 0.11 0.03 0.02 0.00 0.00 0.00 0.00 0.00 0.00 0.00 0.00
0.00 0.00 0.00 0.00 0.00 0.00 0.00 0.01 0.05 0.10 0.13 0.13 0.12 0.10 0.08 0.06 0.04 0.02 0.02 0.02 0.07 0.26 0.48 0.70 0.63 0.79 1.41 1.54 0.75 0.48 0.36 0.23 0.16 0.08 0.04 0.02 0.00 0.00 0.00 0.00 0.00 0.00 0.00
0.00 0.00 0.00 0.00 0.00 0.00 0.00 0.00 0.01 0.06 0.11 0.14 0.15 0.15 0.11 0.09 0.07 0.05 0.04 0.03 0.07 0.18 0.36 0.49 0.68 0.65 0.85 1.42 1.37 0.63 0.46 0.39 0.21 0.16 0.08 0.04 0.00 0.00 0.00 0.00 0.00 0.00 0.00
0.00 0.00 0.00 0.00 0.00 0.00 0.00 0.00 0.00 0.02 0.09 0.13 0.17 0.18 0.17 0.13 0.11 0.10 0.08 0.07 0.09 0.18 0.26 0.38 0.57 0.81 0.79 0.96 1.17 1.27 0.69 0.49 0.34 0.22 0.16 0.04 0.00 0.00 0.00 0.00 0.00 0.00 0.00
0.00 0.00 0.00 0.00 0.00 0.00 0.00 0.00 0.00 0.00 0.05 0.10 0.15 0.19 0.20 0.16 0.14 0.16 0.14 0.14 0.13 0.22 0.23 0.27 0.48 0.76 0.95 1.10 1.06 0.93 1.05 0.59 0.39 0.22 0.19 0.10 0.01 0.00 0.00 0.00 0.00 0.00 0.00
0.00 0.00 0.00 0.00 0.00 0.00 0.00 0.00 0.00 0.00 0.01 0.07 0.11 0.18 0.22 0.19 0.19 0.23 0.19 0.22 0.16 0.25 0.26 0.29 0.37 0.50 0.67 0.91 1.06 1.15 0.92 0.82 0.59 0.34 0.19 0.15 0.06 0.00 0.00 0.00 0.00 0.00 0.00
0.00 0.00 0.00 0.00 0.00 0.00 0.00 0.00 0.00 0.00 0.00 0.01 0.07 0.11 0.25 0.22 0.21 0.25 0.23 0.30 0.20 0.33 0.31 0.21 0.32 0.36 0.51 0.76 0.93 1.08 1.09 0.99 0.85 0.56 0.36 0.21 0.12 0.01 0.00 0.00 0.00 0.00 0.00
0.00 0.00 0.00 0.00 0.00 0.00 0.00 0.00 0.00 0.00 0.00 0.00 0.01 0.05 0.14 0.21 0.21 0.27 0.28 0.39 0.22 0.40 0.33 0.20 0.22 0.30 0.36 0.50 0.60 0.73 0.86 0.84 0.94 0.81 0.47 0.34 0.20 0.09 0.03 0.00 0.00 0.00 0.00
0.00 0.00 0.00 0.00 0.00 0.00 0.00 0.00 0.00 0.00 0.00 0.00 0.00 0.01 0.03 0.11 0.19 0.26 0.29 0.46 0.33 0.30 0.35 0.19 0.16 0.19 0.18 0.27 0.24 0.41 0.49 0.65 0.73 0.68 0.62 0.44 0.32 0.14 0.04 0.03 0.00 0.00 0.00
0.00 0.00 0.00 0.00 0.00 0.00 0.00 0.00 0.00 0.00 0.00 0.00 0.00 0.00 0.00 0.02 0.07 0.16 0.25 0.39 0.43 0.27 0.33 0.20 0.16 0.16 0.22 0.19 0.17 0.21 0.28 0.44 0.48 0.63 0.67 0.64 0.45 0.22 0.05 0.05 0.02 0.00 0.00
0.00 0.00 0.00 0.00 0.00 0.00 0.00 0.00 0.00 0.00 0.00 0.00 0.00 0.00 0.00 0.00 0.01 0.05 0.16 0.27 0.41 0.29 0.22 0.17 0.17 0.14 0.16 0.31 0.21 0.31 0.39 0.48 0.56 0.56 0.63 0.75 0.76 0.54 0.19 0.06 0.04 0.01 0.00
0.00 0.00 0.00 0.00 0.00 0.00 0.00 0.00 0.00 0.00 0.00 0.00 0.00 0.00 0.00 0.00 0.00 0.01 0.03 0.10 0.22 0.24 0.19 0.14 0.11 0.17 0.11 0.22 0.33 0.34 0.43 0.57 0.58 0.56 0.53 0.71 0.83 0.75 0.69 0.29 0.07 0.03 0.01
0.00 0.00 0.00 0.00 0.00 0.00 0.00 0.00 0.00 0.00 0.00 0.00 0.00 0.00 0.00 0.00 0.00 0.00 0.01 0.02 0.04 0.06 0.08 0.10 0.09 0.07 0.09 0.13 0.26 0.43 0.45 0.53 0.53 0.67 0.66 0.51 0.60 0.68 0.78 0.75 0.27 0.04 0.01
0.00 0.00 0.00 0.00 0.00 0.00 0.00 0.00 0.00 0.00 0.00 0.00 0.00 0.00 0.00 0.00 0.00 0.00 0.00 0.01 0.02 0.02 0.02 0.04 0.07 0.07 0.05 0.08 0.12 0.23 0.39 0.47 0.55 0.57 0.66 0.62 0.44 0.32 0.39 0.55 0.53 0.23 0.07
0.00 0.00 0.00 0.00 0.00 0.00 0.00 0.00 0.00 0.00 0.00 0.00 0.00 0.00 0.00 0.00 0.00 0.00 0.00 0.00 0.01 0.03 0.04 0.03 0.04 0.05 0.06 0.04 0.04 0.07 0.16 0.28 0.29 0.49 0.70 0.64 0.48 0.33 0.29 0.36 0.49 0.65 0.52
0.00 0.00 0.00 0.00 0.00 0.00 0.00 0.00 0.00 0.00 0.00 0.00 0.00 0.00 0.00 0.00 0.00 0.00 0.00 0.00 0.02 0.03 0.05 0.05 0.05 0.06 0.04 0.06 0.07 0.03 0.03 0.10 0.17 0.18 0.26 0.36 0.38 0.38 0.41 0.36 0.38 0.59 0.85
0.00 0.00 0.00 0.00 0.00 0.00 0.00 0.00 0.00 0.00 0.00 0.00 0.00 0.00 0.00 0.00 0.00 0.00 0.00 0.01 0.02 0.05 0.07 0.10 0.08 0.10 0.12 0.16 0.20 0.18 0.14 0.10 0.14 0.16 0.10 0.12 0.15 0.23 0.31 0.27 0.31 0.35 0.48
0.00 0.00 0.00 0.00 0.00 0.00 0.00 0.00 0.00 0.00 0.00 0.00 0.00 0.00 0.00 0.00 0.00 0.00 0.00 0.00 0.01 0.02 0.03 0.06 0.08 0.08 0.15 0.14 0.14 0.13 0.17 0.18 0.16 0.12 0.13 0.18 0.19 0.22 0.26 0.25 0.23 0.25 0.35